User: anonymous   Login
Location: *
(44.1392°N, 4.8079°E)
Time: 11:28:37
(UTC+00:00)
Language:

CZ-2D R/B - Orbit

View from above orbital plane
View from above orbital plane
View from above satellite
View from above satellite

Ground track
Ground track

The orbit data is extracted from the following two-line orbital elements,

1 37932U 11068C   21259.84857269  .00000005  00000-0  22153-4 0  9990
2 37932  98.6929 194.7165 0036228 223.2705 195.6860 14.22081759509912
Epoch (UTC): 16 September 2021 20:21:56
Eccentricity: 0.0036228
inclination: 98.6929°
perigee height: 792 km
apogee height: 844 km
right ascension of ascending node: 194.7165°
argument of perigee: 223.2705°
revolutions per day: 14.22081759
mean anomaly at epoch: 195.6860°
orbit number at epoch: 50991

The dashed part of the orbit path shows where the satellite is in the earth's shadow,  

DLR